Flag for U.S.A. Weather past 2 weeks in Daly City, California, U.S.A.

53 °F

Passing clouds.

Feels Like: 51 °F
Forecast: 41 / 53 °F
Wind: 6 mph from Northwest

Location: San Francisco International Airport

Current Time: Nov 25, 2015 at 5:20:25 PM

Latest Report: Nov 25, 2015 at 3:56 PM

Visibility: 10 mi

Pressure: 29.95 "Hg

Humidity: 47%

Dew point: 33 °F

Location of Daly CityLocation

Historic Weather in Daly City — Graph


Daly City temperature yesterday

Maximum temperature yesterday: 58 °F (at 8:56 AM)
Minimum temperature yesterday: 48 °F (at 11:56 PM)
Average temperature yesterday: 53 °F

Past Weeks' High & Low Weather Summary

High68 °F (Nov 19, 2:56 PM)93% (Nov 15, 4:56 AM)30.42 "Hg (Nov 15, 4:56 AM)
Low43 °F (Nov 25, 5:56 AM)35% (Nov 16, 12:56 PM)29.77 "Hg (Nov 15, 5:56 AM)
Average55 °F72%30.09 "Hg
* Reported Nov 10 3:56 PM — Nov 25 3:56 PM, Daly City, Weather by CustomWeather, © 2015

Note: Actual official high and low records may vary slightly from our data, if they occured in-between our weather recording intervals... More about our weather records


Daly City weather history for previous 24 hours

Time TempWeatherWind HumidityBarometerVisibility
3:56 PM
Wed, Nov 25
53 °FPassing clouds.6 mph47%29.95 "Hg10 mi
2:56 PM53 °FScattered clouds.5 mph51%29.94 "Hg10 mi
1:56 PM52 °FScattered clouds.10 mph55%29.93 "Hg10 mi
12:56 PM51 °FScattered clouds.9 mph59%29.93 "Hg10 mi
11:56 AM51 °FScattered clouds.7 mph61%29.93 "Hg10 mi
10:56 AM50 °FScattered clouds.7 mph68%29.95 "Hg10 mi
9:56 AM50 °FScattered clouds.15 mph59%29.96 "Hg10 mi
8:56 AM49 °FPassing clouds.7 mph66%29.95 "Hg10 mi
7:56 AM45 °FPassing clouds.5 mph80%29.95 "Hg10 mi
6:56 AM44 °FPassing clouds.5 mph79%29.94 "Hg10 mi
5:56 AM43 °FPassing clouds.7 mph82%29.93 "Hg10 mi
4:56 AM44 °FPassing clouds.5 mph82%29.91 "Hg10 mi
3:56 AM45 °FPassing clouds.6 mph86%29.91 "Hg10 mi
2:56 AM45 °FPassing clouds.No wind90%29.91 "Hg10 mi
1:56 AM47 °FPartly cloudy.5 mph83%29.89 "Hg10 mi
12:56 AM47 °FPartly cloudy.5 mph80%29.88 "Hg10 mi
11:56 PM
Tue, Nov 24
48 °FOvercast.7 mph77%29.90 "Hg10 mi
10:56 PM49 °FPassing clouds.6 mph74%29.90 "Hg10 mi
9:56 PM50 °FPassing clouds.6 mph71%29.92 "Hg10 mi
8:56 PM50 °FPassing clouds.3 mph71%29.91 "Hg10 mi
7:56 PM51 °FPartly cloudy.9 mph69%29.91 "Hg10 mi
6:56 PM51 °FPartly cloudy.6 mph69%29.92 "Hg10 mi
5:56 PM51 °FPassing clouds.6 mph66%29.92 "Hg10 mi
Weather by CustomWeather, © 2015

See weather overviewHow to use our weather pages